[[{"header":{"parameterUnit":"m.s-1","parameterCategory":1,"la1":30.2991,"la2":30.254,"lo1":-89.0895,"lo2":-89.0444,"dy":0.0017,"dx":0.0017,"nx":28,"ny":28,"refTime":"2024-03-10T09:00:00:Z","depth":0,"parameterNumber":2,"parameterNumberName":"U-component_of_WINDS"},"data":[0,0,0,0,0,0,0,0,0,0,0,0,0,0,0,0,0,0,0,0,0,0,0,0,0,0,0,0,0,0,0,0,0,0,0,0,0,0,0,0,0,0,0,0,0,0,0,0,0,0,0,0,0,0,0,0,0,0,-0.2123,-0.2124,0,-0.2161,-0.2162,-0.2162,-0.2132,-0.2131,-0.213,-0.2128,-0.2172,-0.2174,-0.2177,0,0,0,0,0,0,0,0,0,0,0,0,0,-0.203,-0.2031,-0.2123,-0.2124,-0.2124,-0.2161,-0.2162,-0.2162,-0.2132,-0.2131,-0.2129,-0.2128,-0.2171,-0.2174,-0.2177,0,0,0,0,0,0,0,0,0,0,0,0,0,-0.2069,-0.2032,-0.2123,-0.2114,-0.2113,-0.2161,-0.2162,-0.2162,-0.2133,-0.2131,-0.2129,-0.2127,-0.217,-0.2174,-0.2177,-0.2238,0,0,-0.2188,-0.219,0,0,0,0,0,0,0,0,-0.2067,-0.2073,-0.2115,-0.2114,-0.2114,-0.214,-0.2145,-0.2188,-0.2133,-0.2125,-0.2128,-0.2126,-0.2163,-0.2167,-0.2179,-0.224,-0.2242,-0.2188,-0.2191,-0.2192,-0.2193,0,0,0,0,0,0,0,-0.2064,-0.2071,-0.2138,-0.2115,-0.2115,-0.2109,-0.2112,-0.2153,-0.2155,-0.2126,-0.2124,-0.2128,-0.2163,-0.2175,-0.218,-0.2243,-0.2188,-0.2192,-0.2194,-0.2195,-0.2356,-0.2358,0,0,0,0,0,0,-0.2062,-0.2069,-0.2137,-0.214,-0.2085,-0.2112,-0.2116,-0.2134,-0.2154,-0.2156,-0.213,-0.2127,-0.217,-0.2175,-0.2181,-0.2254,-0.2192,-0.2195,-0.2198,-0.2354,-0.2357,-0.2359,0,0,0,0,0,0,-0.206,-0.2068,-0.2136,-0.2104,-0.2112,-0.2116,-0.2136,-0.2135,-0.2148,-0.2157,-0.2158,-0.2142,-0.2169,-0.2176,-0.2224,-0.2256,-0.2197,-0.22,-0.2352,-0.2355,-0.2358,-0.2401,0,0,0,0,0,0,-0.2057,-0.2068,-0.209,-0.2104,-0.2113,-0.2177,-0.2138,-0.2137,-0.2154,-0.215,-0.2169,-0.2171,-0.2168,-0.2219,-0.2227,-0.2259,-0.2203,-0.2349,-0.2353,-0.2357,-0.2397,-0.2406,-0.2413,0,0,0,0,0,-0.2054,-0.2102,-0.2091,-0.21,-0.2141,-0.2179,-0.2184,-0.2179,-0.2156,-0.2179,-0.2185,-0.217,-0.225,-0.2224,-0.2233,-0.2267,-0.2347,-0.2352,-0.2357,-0.2394,-0.2404,-0.2413,0,0,0,0,0,0,-0.2093,-0.2103,-0.2092,-0.2145,-0.2161,-0.2174,-0.2203,-0.219,-0.2214,-0.221,-0.2203,-0.2208,-0.2259,-0.2267,-0.2238,-0.2327,-0.2295,-0.2302,-0.232,-0.233,-0.2338,-0.2336,-0.2206,0,0,0,0,0,-0.2107,-0.2136,-0.2144,-0.219,-0.2198,-0.2199,-0.2215,-0.2209,-0.2226,-0.2234,-0.2243,-0.2261,-0.2291,-0.231,-0.2338,-0.2397,-0.2402,-0.2425,-0.2433,-0.2439,-0.2446,-0.248,-0.249,-0.2375,-0.2375,-0.2375,0,0,-0.2139,-0.2147,-0.2166,-0.2198,-0.221,-0.2241,-0.2205,-0.2239,-0.2263,-0.2239,-0.2285,-0.2292,-0.2313,-0.2367,-0.2391,-0.2376,-0.2479,-0.2445,-0.245,-0.2454,-0.2486,-0.2497,-0.2506,-0.2378,-0.2378,-0.2377,0,0,-0.2211,-0.222,-0.226,-0.2271,-0.2289,-0.2289,-0.2298,-0.2312,-0.2316,-0.2361,-0.2344,-0.2372,-0.2423,-0.2438,-0.2452,-0.2529,-0.2516,-0.2538,-0.258,-0.2613,-0.2622,-0.263,-0.2659,-0.2669,-0.2544,-0.2544,-0.2544,0,-0.2248,-0.2292,-0.2282,-0.2317,-0.2333,-0.231,-0.2352,-0.2364,-0.239,-0.2402,-0.2383,-0.2446,-0.2458,-0.2516,-0.2534,-0.2546,-0.2558,-0.2537,-0.2621,-0.2629,-0.2636,-0.2664,-0.2675,-0.2547,-0.2547,-0.2546,-0.2546,0,-0.2338,-0.2369,-0.2399,-0.2423,-0.2441,-0.2479,-0.2477,-0.2496,-0.2488,-0.2491,-0.2538,-0.255,-0.258,-0.2593,-0.2586,-0.265,-0.264,-0.2621,-0.259,-0.265,-0.2676,-0.2687,-0.2551,-0.255,-0.2549,-0.2548,0,0,-0.2439,-0.2455,-0.2466,-0.2477,-0.2494,-0.2519,-0.2556,-0.2583,-0.2601,-0.2619,-0.2652,-0.2694,-0.2676,-0.2692,-0.2687,-0.2715,-0.2777,-0.2693,-0.2693,-0.271,-0.285,-0.2866,-0.2878,-0.2767,-0.2769,-0.277,-0.2849,0,-0.2513,-0.2577,-0.2568,-0.263,-0.2659,-0.2638,-0.267,-0.2685,-0.2688,-0.2714,-0.2717,-0.2748,-0.2721,-0.2731,-0.2758,-0.2764,-0.2805,-0.2757,-0.2799,-0.2801,-0.2798,-0.2891,-0.2908,-0.2982,-0.2859,-0.286,-0.2861,0,-0.261,-0.263,-0.2694,-0.2706,-0.2718,-0.2747,-0.2772,-0.2796,-0.2813,-0.2813,-0.283,-0.2819,-0.2858,-0.2823,-0.2877,-0.2845,-0.2861,-0.2866,-0.2869,-0.2875,-0.2837,-0.2902,-0.3005,-0.3017,-0.2877,-0.2876,-0.2875,0,-0.2679,-0.2722,-0.2766,-0.2776,-0.279,-0.2812,-0.2819,-0.2833,-0.285,-0.2871,-0.2883,-0.2909,-0.2924,-0.2945,-0.2942,-0.2917,-0.2998,-0.2963,-0.3001,-0.3001,-0.3022,-0.3021,-0.3131,-0.3028,-0.3028,-0.3028,-0.3027,0,-0.2765,-0.2806,-0.2798,-0.2825,-0.287,-0.286,-0.2906,-0.291,-0.2923,-0.2952,-0.2934,-0.2962,-0.2955,-0.2983,-0.2981,-0.3027,-0.3034,-0.3036,-0.3036,-0.3039,-0.3039,-0.3052,-0.3048,-0.303,-0.303,-0.3029,-0.3029,0,-0.2852,-0.2848,-0.2895,-0.2904,-0.2907,-0.294,-0.2948,-0.2975,-0.2975,-0.3012,-0.302,-0.3022,-0.3054,-0.3052,-0.3088,-0.3087,-0.3144,-0.3137,-0.3139,-0.3138,-0.3177,-0.3175,-0.3301,-0.3318,-0.3202,-0.3203,-0.3204,0,-0.2908,-0.2939,-0.2951,-0.2968,-0.2976,-0.3005,-0.3021,-0.3012,-0.303,-0.305,-0.3075,-0.3105,-0.3129,-0.3181,-0.3186,-0.3214,-0.3208,-0.3251,-0.3213,-0.3216,-0.3212,-0.3211,-0.3215,-0.3259,-0.3261,-0.3262,-0.3262,0,-0.301,-0.3006,-0.303,-0.3053,-0.3073,-0.3091,-0.3108,-0.3123,-0.3116,-0.3138,-0.3169,-0.3187,-0.3223,-0.3254,-0.3281,-0.3289,-0.3276,-0.3274,-0.3285,-0.329,-0.3291,-0.3293,-0.3162,-0.3272,-0.3271,-0.327,-0.327,-0.3269,-0.3085,-0.3111,-0.3123,-0.3151,-0.3162,-0.3177,-0.3203,-0.3205,-0.3231,-0.3259,-0.3251,-0.3288,-0.3303,-0.3336,-0.3348,-0.3377,-0.3362,-0.3377,-0.3381,-0.3386,-0.3391,-0.3284,-0.3381,-0.3381,-0.3381,-0.338,-0.338,0,-0.3187,-0.3193,-0.3218,-0.3241,-0.3263,-0.3245,-0.3262,-0.3282,-0.3313,-0.3328,-0.3351,-0.3387,-0.3416,-0.3423,-0.3451,-0.3473,-0.3468,-0.3481,-0.3481,-0.3484,-0.3402,-0.3391,-0.3485,-0.3485,-0.3485,-0.3485,-0.3485,-0.3485,-0.3243,-0.3287,-0.3284,-0.3334,-0.334,-0.3374,-0.3386,-0.34,-0.3412,-0.3453,-0.3476,-0.3479,-0.3491,-0.352,-0.3546,-0.3547,-0.356,-0.3576,-0.3575,-0.35,-0.3489,-0.3479,-0.3469,-0.3578,-0.3578,-0.3655,-0.3656,-0.3656]},{"header":{"parameterUnit":"m.s-1","parameterCategory":1,"la1":30.2991,"la2":30.254,"lo1":-89.0895,"lo2":-89.0444,"dy":0.0017,"dx":0.0017,"nx":28,"ny":28,"refTime":"2024-03-10T09:00:00:Z","depth":0,"parameterNumber":3,"parameterNumberName":"V-component_of_WINDS"},"data":[0,0,0,0,0,0,0,0,0,0,0,0,0,0,0,0,0,0,0,0,0,0,0,0,0,0,0,0,0,0,0,0,0,0,0,0,0,0,0,0,0,0,0,0,0,0,0,0,0,0,0,0,0,0,0,0,0,0,-4.8965,-4.8966,0,-4.9061,-4.9062,-4.9063,-4.8971,-4.8967,-4.8964,-4.896,-4.9058,-4.9064,-4.907,0,0,0,0,0,0,0,0,0,0,0,0,0,-4.8702,-4.8707,-4.8965,-4.8966,-4.8967,-4.9061,-4.9062,-4.9063,-4.8972,-4.8967,-4.8963,-4.8958,-4.9056,-4.9063,-4.907,0,0,0,0,0,0,0,0,0,0,0,0,0,-4.8809,-4.8709,-4.8965,-4.8933,-4.8931,-4.906,-4.9062,-4.9064,-4.8972,-4.8967,-4.8961,-4.8956,-4.9054,-4.9062,-4.9071,-4.9237,0,0,-4.9099,-4.9103,0,0,0,0,0,0,0,0,-4.8803,-4.8819,-4.8936,-4.8935,-4.8933,-4.8998,-4.9005,-4.9122,-4.8974,-4.8957,-4.896,-4.8954,-4.9043,-4.9052,-4.9082,-4.9242,-4.9246,-4.91,-4.9105,-4.9109,-4.9112,0,0,0,0,0,0,0,-4.8796,-4.8814,-4.9003,-4.8938,-4.8936,-4.8914,-4.8923,-4.9027,-4.9029,-4.8958,-4.8951,-4.8964,-4.9041,-4.9074,-4.9084,-4.9247,-4.91,-4.9108,-4.9113,-4.9117,-4.9548,-4.9553,0,0,0,0,0,0,-4.8792,-4.8809,-4.9,-4.9006,-4.8853,-4.8923,-4.8933,-4.8983,-4.9028,-4.9029,-4.8969,-4.8959,-4.9061,-4.9073,-4.9087,-4.9285,-4.9109,-4.9118,-4.9123,-4.9542,-4.9549,-4.9556,0,0,0,0,0,0,-4.8787,-4.881,-4.8996,-4.8905,-4.8927,-4.8933,-4.899,-4.8988,-4.9021,-4.9036,-4.9036,-4.9002,-4.9057,-4.9074,-4.9201,-4.9287,-4.9122,-4.913,-4.9535,-4.9544,-4.9552,-4.9681,0,0,0,0,0,0,-4.8779,-4.8808,-4.8872,-4.8908,-4.8933,-4.9109,-4.8995,-4.8994,-4.9037,-4.9025,-4.9067,-4.9069,-4.9054,-4.9188,-4.921,-4.9296,-4.9137,-4.9527,-4.9539,-4.9549,-4.9669,-4.9693,-4.9714,0,0,0,0,0,-4.877,-4.8904,-4.8875,-4.8899,-4.9012,-4.9114,-4.9128,-4.9108,-4.9044,-4.9107,-4.9117,-4.9068,-4.9273,-4.9201,-4.9225,-4.9316,-4.9521,-4.9535,-4.9549,-4.9659,-4.9688,-4.9713,0,0,0,0,0,0,-4.8878,-4.8908,-4.8877,-4.9026,-4.9068,-4.9098,-4.9178,-4.914,-4.9201,-4.9188,-4.9161,-4.9171,-4.9305,-4.9323,-4.9242,-4.9479,-4.9387,-4.9406,-4.9463,-4.9491,-4.9513,-4.9506,-4.9144,0,0,0,0,0,-4.8919,-4.8999,-4.9021,-4.9151,-4.9173,-4.9172,-4.9216,-4.9197,-4.9239,-4.9257,-4.9276,-4.9319,-4.9393,-4.9442,-4.9511,-4.967,-4.9679,-4.9744,-4.9767,-4.9785,-4.9802,-4.9888,-4.9918,-4.96,-4.96,-4.96,0,0,-4.9005,-4.9031,-4.9083,-4.9173,-4.9203,-4.9287,-4.9188,-4.9281,-4.9343,-4.9271,-4.9392,-4.9407,-4.9453,-4.9597,-4.9661,-4.9616,-4.9892,-4.9803,-4.9817,-4.9824,-4.9905,-4.9936,-4.9962,-4.9609,-4.9608,-4.9606,0,0,-4.9204,-4.9232,-4.9343,-4.9376,-4.9423,-4.9421,-4.9448,-4.9484,-4.9492,-4.9612,-4.956,-4.9633,-4.9761,-4.9797,-4.9831,-5.0044,-5.0001,-5.0067,-5.0185,-5.0269,-5.0294,-5.0316,-5.0393,-5.0421,-5.0084,-5.0084,-5.0085,0,-4.9305,-4.9429,-4.9405,-4.9502,-4.9543,-4.9482,-4.9594,-4.9627,-4.9694,-4.9724,-4.9672,-4.9832,-4.9859,-5.001,-5.0062,-5.0092,-5.0122,-5.0063,-5.0293,-5.0315,-5.0335,-5.0408,-5.0437,-5.0092,-5.0091,-5.009,-5.009,0,-4.9551,-4.9638,-4.9722,-4.979,-4.984,-4.9944,-4.9936,-4.999,-4.9966,-4.997,-5.0094,-5.0123,-5.0198,-5.0232,-5.021,-5.0381,-5.0351,-5.0297,-5.0204,-5.0373,-5.0442,-5.0469,-5.0103,-5.0101,-5.0098,-5.0096,0,0,-4.9822,-4.9874,-4.9906,-4.9936,-4.9983,-5.005,-5.0151,-5.0224,-5.0271,-5.032,-5.0405,-5.0514,-5.0464,-5.0504,-5.0485,-5.0559,-5.0726,-5.0495,-5.0495,-5.0538,-5.0917,-5.0959,-5.0992,-5.0697,-5.0703,-5.0707,-5.0914,0,-5.0024,-5.02,-5.0181,-5.035,-5.043,-5.0373,-5.0461,-5.05,-5.0506,-5.0575,-5.0581,-5.066,-5.0587,-5.0611,-5.0681,-5.0691,-5.0802,-5.0676,-5.0777,-5.0781,-5.0768,-5.1027,-5.1072,-5.1266,-5.094,-5.0944,-5.0948,0,-5.0283,-5.0341,-5.0518,-5.0554,-5.0587,-5.0667,-5.0732,-5.0798,-5.0841,-5.084,-5.0885,-5.0853,-5.0955,-5.0859,-5.1,-5.0914,-5.0954,-5.0965,-5.0972,-5.0982,-5.0875,-5.1045,-5.1327,-5.1357,-5.0989,-5.0986,-5.0983,0,-5.0464,-5.0587,-5.0708,-5.0735,-5.078,-5.0837,-5.0858,-5.0896,-5.0941,-5.0998,-5.1027,-5.1095,-5.1132,-5.1185,-5.1173,-5.1104,-5.1317,-5.122,-5.1319,-5.132,-5.1368,-5.1365,-5.1661,-5.1392,-5.1391,-5.1391,-5.139,0,-5.0692,-5.0803,-5.079,-5.0866,-5.0988,-5.0964,-5.1086,-5.11,-5.1133,-5.121,-5.1164,-5.1237,-5.1215,-5.1287,-5.1277,-5.1396,-5.1412,-5.1415,-5.1411,-5.142,-5.142,-5.1447,-5.1434,-5.1398,-5.1397,-5.1395,-5.1394,0,-5.0916,-5.0912,-5.1041,-5.1073,-5.1083,-5.1172,-5.1198,-5.1269,-5.1271,-5.1369,-5.139,-5.1394,-5.1476,-5.1468,-5.156,-5.1554,-5.1701,-5.168,-5.1687,-5.1683,-5.1783,-5.1774,-5.2108,-5.2151,-5.1852,-5.1855,-5.1857,0,-5.1063,-5.1147,-5.1187,-5.1235,-5.1261,-5.1339,-5.1385,-5.1364,-5.1414,-5.1469,-5.1534,-5.1611,-5.1673,-5.1807,-5.1817,-5.1888,-5.187,-5.1981,-5.188,-5.1886,-5.1873,-5.1869,-5.1877,-5.2002,-5.2005,-5.2008,-5.201,0,-5.1324,-5.1318,-5.1386,-5.1454,-5.151,-5.1562,-5.161,-5.1652,-5.1636,-5.1695,-5.1778,-5.1826,-5.192,-5.1998,-5.2065,-5.2086,-5.2047,-5.2042,-5.2069,-5.208,-5.208,-5.2082,-5.1743,-5.2035,-5.2032,-5.2031,-5.2029,-5.2028,-5.1515,-5.1587,-5.1627,-5.1704,-5.1738,-5.1783,-5.1851,-5.1862,-5.1932,-5.2007,-5.199,-5.2085,-5.2125,-5.2211,-5.2239,-5.2312,-5.2271,-5.231,-5.232,-5.2331,-5.2343,-5.2068,-5.2324,-5.2323,-5.2322,-5.2322,-5.2321,0,-5.1774,-5.1797,-5.1868,-5.1937,-5.1998,-5.1954,-5.2005,-5.2059,-5.2143,-5.2184,-5.2245,-5.2341,-5.2417,-5.2434,-5.2506,-5.2561,-5.2545,-5.2581,-5.2578,-5.2583,-5.2374,-5.2345,-5.2593,-5.2593,-5.2593,-5.2593,-5.2593,-5.2593,-5.1917,-5.2037,-5.2035,-5.2172,-5.2193,-5.2286,-5.2318,-5.236,-5.2393,-5.2503,-5.2566,-5.2576,-5.2607,-5.2681,-5.2748,-5.2751,-5.278,-5.2824,-5.282,-5.2625,-5.2598,-5.2572,-5.2544,-5.2831,-5.2831,-5.3023,-5.3025,-5.3026]}]]